MinXSS-2 (43758 NORAD) Tracking and Keplerian Element Data

This shows tracking and keplerian element data for the satellite.

Feedback or suggestion? Click here.




ElementValue
Catalog43758
NameMinXSS-2
Epoch Orbit664
Epoch Day17.18576533
Epoch Year2019
RAAN90.9194
Inclination97.7632
Eccentricity0.0016988
Argument of Perigee114.8802
Mean Anonmoly245.4187
Mean Motion14.95284178
Decay Rate-7.8E-07
L11 43758U 18099A 19017.18576533 -.00000078 00000-0 -17681-5 0 9995
L22 43758 97.7632 90.9194 0016988 114.8802 245.4187 14.95284178 6647

Live tracking and technical data element details for MinXSS-2 (NORAD 43758). MinXSS-2 can be tracked NOW for your location showing map with azimuth and elevation plus other details from your city location.

Track the satellite on the map from your city or location and see movement details for azimuth, elevation, latitude, longitude, range, height, and movement on the map or in text.







IsCatalogInMostPopularTable: catalog: 43758, numindb: 31
Update: records affected: 1



GetName: 43758 MinXSS-2

Hit Count: updated at: Wed, 23 Jan 2019 02:46:12 GMT